Time,TemperatureF,DewpointF,PressureIn,WindDirection,WindDirectionDegrees,WindSpeedMPH,WindSpeedGustMPH,Humidity,HourlyPrecipIn,Conditions,Clouds,dailyrainin,SoftwareType,DateUTC
2013-07-11 00:03:00,80.3,54.4,29.53,North,-999,0.0,0.0,41,0.00,,,0.00,LWC V1.12 B30,2013-07-11 06:03:00,
2013-07-11 00:08:00,80.2,54.3,29.53,North,-999,0.0,0.0,41,0.00,,,0.00,LWC V1.12 B30,2013-07-11 06:08:00,
2013-07-11 00:13:00,80.1,54.2,29.53,North,-999,0.0,0.0,41,0.00,,,0.00,LWC V1.12 B30,2013-07-11 06:13:00,
2013-07-11 00:18:00,80.1,54.9,29.53,North,-999,0.0,0.0,42,0.00,,,0.00,LWC V1.12 B30,2013-07-11 06:18:00,
2013-07-11 00:23:00,79.8,55.9,29.53,North,-999,0.0,0.0,44,0.00,,,0.00,LWC V1.12 B30,2013-07-11 06:23:00,
2013-07-11 00:28:00,79.7,56.5,29.53,North,-999,0.0,0.0,45,0.00,,,0.00,LWC V1.12 B30,2013-07-11 06:28:00,
2013-07-11 00:33:00,79.4,56.8,29.53,North,-999,0.0,0.0,46,0.00,,,0.00,LWC V1.12 B30,2013-07-11 06:33:00,
2013-07-11 00:38:00,79.1,57.7,29.53,North,-999,0.0,0.0,48,0.00,,,0.00,LWC V1.12 B30,2013-07-11 06:38:00,
2013-07-11 00:43:00,78.7,58.5,29.53,North,-999,0.0,0.0,50,0.00,,,0.00,LWC V1.12 B30,2013-07-11 06:43:00,
2013-07-11 00:48:00,78.5,58.8,29.53,North,-999,0.0,0.0,51,0.00,,,0.00,LWC V1.12 B30,2013-07-11 06:48:00,
2013-07-11 00:53:00,78.2,58.6,29.53,North,-999,0.0,0.0,51,0.00,,,0.00,LWC V1.12 B30,2013-07-11 06:53:00,
2013-07-11 00:58:00,78.2,57.5,29.53,North,-999,0.0,0.0,49,0.00,,,0.00,LWC V1.12 B30,2013-07-11 06:58:00,
2013-07-11 01:03:00,78.1,56.8,29.53,North,-999,0.0,0.0,48,0.00,,,0.00,LWC V1.12 B30,2013-07-11 07:03:00,
2013-07-11 01:08:00,78.1,56.8,29.53,North,-999,0.0,0.0,48,0.00,,,0.00,LWC V1.12 B30,2013-07-11 07:08:00,
2013-07-11 01:13:00,77.9,56.6,29.53,North,-999,0.0,0.0,48,0.00,,,0.00,LWC V1.12 B30,2013-07-11 07:13:00,
2013-07-11 01:18:00,77.8,57.1,29.53,North,-999,0.0,0.0,49,0.00,,,0.00,LWC V1.12 B30,2013-07-11 07:18:00,
2013-07-11 01:23:00,77.6,57.5,29.53,North,-999,0.0,0.0,50,0.00,,,0.00,LWC V1.12 B30,2013-07-11 07:23:00,
2013-07-11 01:28:00,77.4,58.4,29.53,North,-999,0.0,0.0,52,0.00,,,0.00,LWC V1.12 B30,2013-07-11 07:28:00,
2013-07-11 01:33:00,77.2,57.6,29.53,North,-999,0.0,0.0,51,0.00,,,0.00,LWC V1.12 B30,2013-07-11 07:33:00,
2013-07-11 01:38:00,77.1,58.6,29.53,North,-999,0.0,0.0,53,0.00,,,0.00,LWC V1.12 B30,2013-07-11 07:38:00,
2013-07-11 01:43:00,77.0,59.1,29.53,North,-999,0.0,0.0,54,0.00,,,0.00,LWC V1.12 B30,2013-07-11 07:43:00,
2013-07-11 01:48:00,76.9,59.5,29.53,North,-999,0.0,0.0,55,0.00,,,0.00,LWC V1.12 B30,2013-07-11 07:48:00,
2013-07-11 01:53:00,76.7,59.3,29.53,North,-999,0.0,0.0,55,0.00,,,0.00,LWC V1.12 B30,2013-07-11 07:53:00,
2013-07-11 01:58:00,76.2,59.3,29.53,North,-999,0.0,0.0,56,0.00,,,0.00,LWC V1.12 B30,2013-07-11 07:58:00,
2013-07-11 02:03:00,75.9,59.1,29.53,North,-999,0.0,0.0,56,0.00,,,0.00,LWC V1.12 B30,2013-07-11 08:03:00,
2013-07-11 02:08:00,75.6,59.3,29.53,North,-999,0.0,0.0,57,0.00,,,0.00,LWC V1.12 B30,2013-07-11 08:08:00,
2013-07-11 02:13:00,75.3,60.0,29.53,North,-999,0.0,0.0,59,0.00,,,0.00,LWC V1.12 B30,2013-07-11 08:13:00,
2013-07-11 02:18:00,75.0,59.7,29.53,North,-999,0.0,0.0,59,0.00,,,0.00,LWC V1.12 B30,2013-07-11 08:18:00,
2013-07-11 02:23:00,74.8,60.4,29.53,North,-999,0.0,0.0,61,0.00,,,0.00,LWC V1.12 B30,2013-07-11 08:23:00,
2013-07-11 02:28:00,74.6,60.2,29.53,North,-999,0.0,0.0,61,0.00,,,0.00,LWC V1.12 B30,2013-07-11 08:28:00,
2013-07-11 02:33:00,74.4,60.1,29.53,North,-999,0.0,0.0,61,0.00,,,0.00,LWC V1.12 B30,2013-07-11 08:33:00,
2013-07-11 02:38:00,74.2,60.3,29.53,North,-999,0.0,0.0,62,0.00,,,0.00,LWC V1.12 B30,2013-07-11 08:38:00,
2013-07-11 02:43:00,74.1,60.2,29.53,North,-999,0.0,0.0,62,0.00,,,0.00,LWC V1.12 B30,2013-07-11 08:43:00,
2013-07-11 02:48:00,74.2,60.3,29.53,North,-999,0.0,0.0,62,0.00,,,0.00,LWC V1.12 B30,2013-07-11 08:48:00,
2013-07-11 02:53:00,74.3,60.0,29.53,North,-999,0.0,0.0,61,0.00,,,0.00,LWC V1.12 B30,2013-07-11 08:53:00,
2013-07-11 02:58:00,74.3,60.4,29.53,North,-999,0.0,0.0,62,0.00,,,0.00,LWC V1.12 B30,2013-07-11 08:58:00,
2013-07-11 03:03:00,74.2,60.3,29.53,North,-999,0.0,0.0,62,0.00,,,0.00,LWC V1.12 B30,2013-07-11 09:03:00,
2013-07-11 03:08:00,74.1,60.7,29.53,North,-999,0.0,0.0,63,0.00,,,0.00,LWC V1.12 B30,2013-07-11 09:08:00,
2013-07-11 03:11:00,74.0,60.6,29.53,North,-999,0.0,0.0,63,0.00,,,0.00,LWC V1.12 B30,2013-07-11 09:11:00,
2013-07-11 03:16:00,73.9,60.5,29.53,North,-999,0.0,0.0,63,0.00,,,0.00,LWC V1.12 B30,2013-07-11 09:16:00,
2013-07-11 03:21:00,73.9,60.0,29.53,North,-999,0.0,0.0,62,0.00,,,0.00,LWC V1.12 B30,2013-07-11 09:21:00,
2013-07-11 03:26:00,73.9,60.0,29.53,North,-999,0.0,0.0,62,0.00,,,0.00,LWC V1.12 B30,2013-07-11 09:26:00,
2013-07-11 03:31:00,73.9,60.0,29.53,North,-999,0.0,0.0,62,0.00,,,0.00,LWC V1.12 B30,2013-07-11 09:31:00,
2013-07-11 03:36:00,73.8,59.5,29.53,North,-999,0.0,0.0,61,0.00,,,0.00,LWC V1.12 B30,2013-07-11 09:36:00,
2013-07-11 03:41:00,73.8,59.5,29.53,North,-999,0.0,0.0,61,0.00,,,0.00,LWC V1.12 B30,2013-07-11 09:41:00,
2013-07-11 03:46:00,73.7,58.9,29.53,North,-999,0.0,0.0,60,0.00,,,0.00,LWC V1.12 B30,2013-07-11 09:46:00,
2013-07-11 03:51:00,73.5,59.2,29.53,North,-999,0.0,0.0,61,0.00,,,0.00,LWC V1.12 B30,2013-07-11 09:51:00,
2013-07-11 03:56:00,73.5,58.7,29.53,North,-999,0.0,0.0,60,0.00,,,0.00,LWC V1.12 B30,2013-07-11 09:56:00,
2013-07-11 04:02:00,73.4,58.7,29.53,North,-999,0.0,0.0,60,0.00,,,0.00,LWC V1.12 B30,2013-07-11 10:02:00,
2013-07-11 04:07:00,73.3,59.0,29.53,North,-999,0.0,0.0,61,0.00,,,0.00,LWC V1.12 B30,2013-07-11 10:07:00,
2013-07-11 04:12:00,73.3,59.0,29.53,North,-999,0.0,0.0,61,0.00,,,0.00,LWC V1.12 B30,2013-07-11 10:12:00,
2013-07-11 04:17:00,73.2,58.9,29.53,North,-999,0.0,0.0,61,0.00,,,0.00,LWC V1.12 B30,2013-07-11 10:17:00,
2013-07-11 04:22:00,73.1,58.8,29.53,North,-999,0.0,0.0,61,0.00,,,0.00,LWC V1.12 B30,2013-07-11 10:22:00,
2013-07-11 04:27:00,72.9,59.1,29.53,North,-999,0.0,0.0,62,0.00,,,0.00,LWC V1.12 B30,2013-07-11 10:27:00,
2013-07-11 04:32:00,72.9,59.1,29.53,North,-999,0.0,0.0,62,0.00,,,0.00,LWC V1.12 B30,2013-07-11 10:32:00,
2013-07-11 04:37:00,72.7,58.9,29.53,North,-999,0.0,0.0,62,0.00,,,0.00,LWC V1.12 B30,2013-07-11 10:37:00,
2013-07-11 04:42:00,72.6,58.4,29.53,North,-999,0.0,0.0,61,0.00,,,0.00,LWC V1.12 B30,2013-07-11 10:42:00,
2013-07-11 04:47:00,72.5,58.7,29.53,North,-999,0.0,0.0,62,0.00,,,0.00,LWC V1.12 B30,2013-07-11 10:47:00,
2013-07-11 04:52:00,72.6,58.8,29.53,North,-999,0.0,0.0,62,0.00,,,0.00,LWC V1.12 B30,2013-07-11 10:52:00,
2013-07-11 04:57:00,72.5,58.3,29.53,North,-999,0.0,0.0,61,0.00,,,0.00,LWC V1.12 B30,2013-07-11 10:57:00,
2013-07-11 05:02:00,72.5,58.3,29.53,North,-999,0.0,0.0,61,0.00,,,0.00,LWC V1.12 B30,2013-07-11 11:02:00,
2013-07-11 05:07:00,72.4,58.2,29.53,North,-999,0.0,0.0,61,0.00,,,0.00,LWC V1.12 B30,2013-07-11 11:07:00,
2013-07-11 05:12:00,72.4,58.2,29.53,North,-999,0.0,0.0,61,0.00,,,0.00,LWC V1.12 B30,2013-07-11 11:12:00,
2013-07-11 05:17:00,72.4,58.2,29.53,North,-999,0.0,0.0,61,0.00,,,0.00,LWC V1.12 B30,2013-07-11 11:17:00,
2013-07-11 05:22:00,72.4,58.2,29.53,North,-999,0.0,0.0,61,0.00,,,0.00,LWC V1.12 B30,2013-07-11 11:22:00,
2013-07-11 05:27:00,72.3,58.1,29.53,North,-999,0.0,0.0,61,0.00,,,0.00,LWC V1.12 B30,2013-07-11 11:27:00,
2013-07-11 05:32:00,72.3,58.1,29.53,North,-999,0.0,0.0,61,0.00,,,0.00,LWC V1.12 B30,2013-07-11 11:32:00,
2013-07-11 05:37:00,72.2,58.4,29.53,North,-999,0.0,0.0,62,0.00,,,0.00,LWC V1.12 B30,2013-07-11 11:37:00,
2013-07-11 05:42:00,72.3,59.0,29.53,North,-999,0.0,0.0,63,0.00,,,0.00,LWC V1.12 B30,2013-07-11 11:42:00,
2013-07-11 05:47:00,72.3,59.0,29.53,North,-999,0.0,0.0,63,0.00,,,0.00,LWC V1.12 B30,2013-07-11 11:47:00,
2013-07-11 05:52:00,72.4,59.1,29.53,North,-999,0.0,0.0,63,0.00,,,0.00,LWC V1.12 B30,2013-07-11 11:52:00,
2013-07-11 05:57:00,72.4,59.1,29.53,North,-999,0.0,0.0,63,0.00,,,0.00,LWC V1.12 B30,2013-07-11 11:57:00,
2013-07-11 06:02:00,72.4,59.1,29.53,North,-999,0.0,0.0,63,0.00,,,0.00,LWC V1.12 B30,2013-07-11 12:02:00,
2013-07-11 06:07:00,72.5,59.2,29.53,North,-999,0.0,0.0,63,0.00,,,0.00,LWC V1.12 B30,2013-07-11 12:07:00,
2013-07-11 06:12:00,72.5,59.2,29.53,North,-999,0.0,0.0,63,0.00,,,0.00,LWC V1.12 B30,2013-07-11 12:12:00,
2013-07-11 06:17:00,72.4,59.5,29.53,North,-999,0.0,0.0,64,0.00,,,0.00,LWC V1.12 B30,2013-07-11 12:17:00,
2013-07-11 06:22:00,72.4,59.5,29.53,North,-999,0.0,0.0,64,0.00,,,0.00,LWC V1.12 B30,2013-07-11 12:22:00,
2013-07-11 06:27:00,72.3,59.9,29.53,North,-999,0.0,0.0,65,0.00,,,0.00,LWC V1.12 B30,2013-07-11 12:27:00,
2013-07-11 06:32:00,72.2,59.8,29.53,North,-999,0.0,0.0,65,0.00,,,0.00,LWC V1.12 B30,2013-07-11 12:32:00,
2013-07-11 06:37:00,72.2,59.8,29.53,North,-999,0.0,0.0,65,0.00,,,0.00,LWC V1.12 B30,2013-07-11 12:37:00,
2013-07-11 06:42:00,72.2,60.2,29.53,North,-999,0.0,0.0,66,0.00,,,0.00,LWC V1.12 B30,2013-07-11 12:42:00,
2013-07-11 06:47:00,72.2,59.8,29.53,North,-999,0.0,0.0,65,0.00,,,0.00,LWC V1.12 B30,2013-07-11 12:47:00,
2013-07-11 06:52:00,72.3,59.9,29.53,North,-999,0.0,0.0,65,0.00,,,0.00,LWC V1.12 B30,2013-07-11 12:52:00,
2013-07-11 06:57:00,72.4,60.0,29.53,North,-999,0.0,0.0,65,0.00,,,0.00,LWC V1.12 B30,2013-07-11 12:57:00,
2013-07-11 07:02:00,72.4,60.4,29.53,North,-999,0.0,0.0,66,0.00,,,0.00,LWC V1.12 B30,2013-07-11 13:02:00,
2013-07-11 07:07:00,72.3,60.3,29.53,North,-999,0.0,0.0,66,0.00,,,0.00,LWC V1.12 B30,2013-07-11 13:07:00,
2013-07-11 07:12:00,72.1,60.1,29.53,North,-999,0.0,0.0,66,0.00,,,0.00,LWC V1.12 B30,2013-07-11 13:12:00,
2013-07-11 07:18:00,72.1,60.5,29.53,North,-999,0.0,0.0,67,0.00,,,0.00,LWC V1.12 B30,2013-07-11 13:18:00,
2013-07-11 07:23:00,72.1,60.5,29.53,North,-999,0.0,0.0,67,0.00,,,0.00,LWC V1.12 B30,2013-07-11 13:23:00,
2013-07-11 07:28:00,72.1,60.9,29.53,North,-999,0.0,0.0,68,0.00,,,0.00,LWC V1.12 B30,2013-07-11 13:28:00,
2013-07-11 07:33:00,72.1,60.9,29.53,North,-999,0.0,0.0,68,0.00,,,0.00,LWC V1.12 B30,2013-07-11 13:33:00,
2013-07-11 07:38:00,72.2,61.4,29.53,North,-999,0.0,0.0,69,0.00,,,0.00,LWC V1.12 B30,2013-07-11 13:38:00,
2013-07-11 07:44:00,72.5,61.7,29.53,North,-999,0.0,0.0,69,0.00,,,0.00,LWC V1.12 B30,2013-07-11 13:44:00,
2013-07-11 07:49:00,72.5,61.7,29.53,North,-999,0.0,0.0,69,0.00,,,0.00,LWC V1.12 B30,2013-07-11 13:49:00,
2013-07-11 07:55:00,72.6,61.4,29.53,North,-999,0.0,0.0,68,0.00,,,0.00,LWC V1.12 B30,2013-07-11 13:55:00,
2013-07-11 08:01:00,72.5,60.9,29.53,North,-999,0.0,0.0,67,0.00,,,0.00,LWC V1.12 B30,2013-07-11 14:01:00,
2013-07-11 08:06:00,72.6,61.0,29.53,North,-999,0.0,0.0,67,0.00,,,0.00,LWC V1.12 B30,2013-07-11 14:06:00,
2013-07-11 08:12:00,72.9,60.9,29.53,North,-999,0.0,0.0,66,0.00,,,0.00,LWC V1.12 B30,2013-07-11 14:12:00,
2013-07-11 08:17:00,73.1,61.0,29.53,North,-999,0.0,0.0,66,0.00,,,0.00,LWC V1.12 B30,2013-07-11 14:17:00,
2013-07-11 08:22:00,73.3,60.8,29.53,North,-999,0.0,0.0,65,0.00,,,0.00,LWC V1.12 B30,2013-07-11 14:22:00,
2013-07-11 08:27:00,73.7,60.7,29.53,North,-999,0.0,0.0,64,0.00,,,0.00,LWC V1.12 B30,2013-07-11 14:27:00,
2013-07-11 08:33:00,74.0,61.0,29.53,North,-999,0.0,0.0,64,0.00,,,0.00,LWC V1.12 B30,2013-07-11 14:33:00,
2013-07-11 08:38:00,74.2,60.8,29.53,North,-999,0.0,0.0,63,0.00,,,0.00,LWC V1.12 B30,2013-07-11 14:38:00,
2013-07-11 08:43:00,74.4,60.5,29.53,North,-999,0.0,0.0,62,0.00,,,0.00,LWC V1.12 B30,2013-07-11 14:43:00,
2013-07-11 08:48:00,74.6,60.2,29.53,North,-999,0.0,0.0,61,0.00,,,0.00,LWC V1.12 B30,2013-07-11 14:48:00,
2013-07-11 08:53:00,74.7,60.8,29.53,North,-999,0.0,0.0,62,0.00,,,0.00,LWC V1.12 B30,2013-07-11 14:53:00,
2013-07-11 08:59:00,74.8,61.3,29.53,North,-999,0.0,0.0,63,0.00,,,0.00,LWC V1.12 B30,2013-07-11 14:59:00,
2013-07-11 09:04:00,75.3,61.4,29.53,North,-999,0.0,0.0,62,0.00,,,0.00,LWC V1.12 B30,2013-07-11 15:04:00,
2013-07-11 09:09:00,75.8,60.9,29.53,North,-999,0.0,0.0,60,0.00,,,0.00,LWC V1.12 B30,2013-07-11 15:09:00,
2013-07-11 09:14:00,76.2,60.3,29.53,North,-999,0.0,0.0,58,0.00,,,0.00,LWC V1.12 B30,2013-07-11 15:14:00,
2013-07-11 09:19:00,76.2,60.3,29.53,North,-999,0.0,0.0,58,0.00,,,0.00,LWC V1.12 B30,2013-07-11 15:19:00,
2013-07-11 09:24:00,76.1,60.2,29.53,North,-999,0.0,0.0,58,0.00,,,0.00,LWC V1.12 B30,2013-07-11 15:24:00,
2013-07-11 09:29:00,76.2,60.3,29.53,North,-999,0.0,0.0,58,0.00,,,0.00,LWC V1.12 B30,2013-07-11 15:29:00,
2013-07-11 09:35:00,76.3,60.9,29.53,North,-999,0.0,0.0,59,0.00,,,0.00,LWC V1.12 B30,2013-07-11 15:35:00,
2013-07-11 09:41:00,76.4,61.0,29.53,North,-999,0.0,0.0,59,0.00,,,0.00,LWC V1.12 B30,2013-07-11 15:41:00,
2013-07-11 09:47:00,76.6,61.2,29.53,North,-999,0.0,0.0,59,0.00,,,0.00,LWC V1.12 B30,2013-07-11 15:47:00,
2013-07-11 09:52:00,76.8,60.9,29.53,North,-999,0.0,0.0,58,0.00,,,0.00,LWC V1.12 B30,2013-07-11 15:52:00,
2013-07-11 09:57:00,77.1,61.6,29.53,North,-999,0.0,0.0,59,0.00,,,0.00,LWC V1.12 B30,2013-07-11 15:57:00,
2013-07-11 10:02:00,77.5,62.0,29.53,North,-999,0.0,0.0,59,0.00,,,0.00,LWC V1.12 B30,2013-07-11 16:02:00,
2013-07-11 10:08:00,77.6,60.6,29.53,North,-999,0.0,0.0,56,0.00,,,0.00,LWC V1.12 B30,2013-07-11 16:08:00,
2013-07-11 10:13:00,77.7,60.2,29.53,North,-999,0.0,0.0,55,0.00,,,0.00,LWC V1.12 B30,2013-07-11 16:13:00,
2013-07-11 10:18:00,77.7,59.2,29.53,North,-999,0.0,0.0,53,0.00,,,0.00,LWC V1.12 B30,2013-07-11 16:18:00,
2013-07-11 10:23:00,77.6,59.1,29.53,North,-999,0.0,0.0,53,0.00,,,0.00,LWC V1.12 B30,2013-07-11 16:23:00,
2013-07-11 10:28:00,77.6,58.6,29.53,North,-999,0.0,0.0,52,0.00,,,0.00,LWC V1.12 B30,2013-07-11 16:28:00,
2013-07-11 10:34:00,77.7,58.1,29.53,North,-999,0.0,0.0,51,0.00,,,0.00,LWC V1.12 B30,2013-07-11 16:34:00,
2013-07-11 10:39:00,77.7,58.1,29.53,North,-999,0.0,0.0,51,0.00,,,0.00,LWC V1.12 B30,2013-07-11 16:39:00,
2013-07-11 10:44:00,77.8,58.2,29.53,North,-999,0.0,0.0,51,0.00,,,0.00,LWC V1.12 B30,2013-07-11 16:44:00,
2013-07-11 10:49:00,78.1,58.5,29.53,North,-999,0.0,0.0,51,0.00,,,0.00,LWC V1.12 B30,2013-07-11 16:49:00,
2013-07-11 10:54:00,78.4,58.2,29.53,North,-999,0.0,0.0,50,0.00,,,0.00,LWC V1.12 B30,2013-07-11 16:54:00,
2013-07-11 11:00:00,78.7,59.0,29.53,North,-999,0.0,0.0,51,0.00,,,0.00,LWC V1.12 B30,2013-07-11 17:00:00,
2013-07-11 11:05:00,79.1,58.8,29.53,North,-999,0.0,0.0,50,0.00,,,0.00,LWC V1.12 B30,2013-07-11 17:05:00,
2013-07-11 11:11:00,79.8,59.5,29.53,North,-999,0.0,0.0,50,0.00,,,0.00,LWC V1.12 B30,2013-07-11 17:11:00,
2013-07-11 11:16:00,80.3,58.8,29.53,North,-999,0.0,0.0,48,0.00,,,0.00,LWC V1.12 B30,2013-07-11 17:16:00,
2013-07-11 11:23:00,80.7,58.6,29.53,North,-999,0.0,0.0,47,0.00,,,0.00,LWC V1.12 B30,2013-07-11 17:23:00,
2013-07-11 11:28:00,80.8,58.7,29.53,North,-999,0.0,0.0,47,0.00,,,0.00,LWC V1.12 B30,2013-07-11 17:28:00,
2013-07-11 11:34:00,80.9,58.2,29.53,North,-999,0.0,0.0,46,0.00,,,0.00,LWC V1.12 B30,2013-07-11 17:34:00,
2013-07-11 11:39:00,81.2,58.4,29.53,North,-999,0.0,0.0,46,0.00,,,0.00,LWC V1.12 B30,2013-07-11 17:39:00,
2013-07-11 11:44:00,81.6,58.8,29.53,North,-999,0.0,0.0,46,0.00,,,0.00,LWC V1.12 B30,2013-07-11 17:44:00,
2013-07-11 11:49:00,82.1,58.6,29.53,North,-999,0.0,0.0,45,0.00,,,0.00,LWC V1.12 B30,2013-07-11 17:49:00,
2013-07-11 11:54:00,82.4,58.9,29.53,North,-999,0.0,0.0,45,0.00,,,0.00,LWC V1.12 B30,2013-07-11 17:54:00,
2013-07-11 12:00:00,82.5,59.6,29.53,North,-999,0.0,0.0,46,0.00,,,0.00,LWC V1.12 B30,2013-07-11 18:00:00,
2013-07-11 12:05:00,82.8,59.3,29.53,North,-999,0.0,0.0,45,0.00,,,0.00,LWC V1.12 B30,2013-07-11 18:05:00,
2013-07-11 12:11:00,82.8,59.3,29.53,North,-999,0.0,0.0,45,0.00,,,0.00,LWC V1.12 B30,2013-07-11 18:11:00,
2013-07-11 12:16:00,82.8,59.3,29.53,North,-999,0.0,0.0,45,0.00,,,0.00,LWC V1.12 B30,2013-07-11 18:16:00,
2013-07-11 12:21:00,82.7,59.2,29.53,North,-999,0.0,0.0,45,0.00,,,0.00,LWC V1.12 B30,2013-07-11 18:21:00,
2013-07-11 12:26:00,82.7,59.2,29.53,North,-999,0.0,0.0,45,0.00,,,0.00,LWC V1.12 B30,2013-07-11 18:26:00,
2013-07-11 12:31:00,82.9,58.7,29.53,North,-999,0.0,0.0,44,0.00,,,0.00,LWC V1.12 B30,2013-07-11 18:31:00,
2013-07-11 12:37:00,83.6,58.7,29.53,North,-999,0.0,0.0,43,0.00,,,0.00,LWC V1.12 B30,2013-07-11 18:37:00,
2013-07-11 12:42:00,84.3,58.7,29.53,North,-999,0.0,0.0,42,0.00,,,0.00,LWC V1.12 B30,2013-07-11 18:42:00,
2013-07-11 12:47:00,85.0,59.3,29.53,North,-999,0.0,0.0,42,0.00,,,0.00,LWC V1.12 B30,2013-07-11 18:47:00,
2013-07-11 12:52:00,85.8,58.7,29.53,North,-999,0.0,0.0,40,0.00,,,0.00,LWC V1.12 B30,2013-07-11 18:52:00,
2013-07-11 12:57:00,86.3,58.4,29.53,North,-999,0.0,0.0,39,0.00,,,0.00,LWC V1.12 B30,2013-07-11 18:57:00,
2013-07-11 13:03:00,86.9,58.9,29.53,North,-999,0.0,0.0,39,0.00,,,0.00,LWC V1.12 B30,2013-07-11 19:03:00,
2013-07-11 13:08:00,87.6,59.5,29.53,North,-999,0.0,0.0,39,0.00,,,0.00,LWC V1.12 B30,2013-07-11 19:08:00,
2013-07-11 13:15:00,88.0,56.9,29.53,North,-999,0.0,0.0,35,0.00,,,0.00,LWC V1.12 B30,2013-07-11 19:15:00,
2013-07-11 13:20:00,88.0,58.4,29.53,North,-999,0.0,0.0,37,0.00,,,0.00,LWC V1.12 B30,2013-07-11 19:20:00,
2013-07-11 13:25:00,88.3,57.1,29.53,North,-999,0.0,0.0,35,0.00,,,0.00,LWC V1.12 B30,2013-07-11 19:25:00,
2013-07-11 13:31:00,89.0,56.9,29.53,North,-999,0.0,0.0,34,0.00,,,0.00,LWC V1.12 B30,2013-07-11 19:31:00,
2013-07-11 13:36:00,88.9,56.0,29.53,North,-999,0.0,0.0,33,0.00,,,0.00,LWC V1.12 B30,2013-07-11 19:36:00,
2013-07-11 13:42:00,88.2,57.0,29.53,North,-999,0.0,0.0,35,0.00,,,0.00,LWC V1.12 B30,2013-07-11 19:42:00,
2013-07-11 13:47:00,87.7,56.6,29.53,North,-999,0.0,0.0,35,0.00,,,0.00,LWC V1.12 B30,2013-07-11 19:47:00,
2013-07-11 13:53:00,87.5,57.2,29.53,North,-999,0.0,0.0,36,0.00,,,0.00,LWC V1.12 B30,2013-07-11 19:53:00,
2013-07-11 13:58:00,87.7,58.2,29.53,North,-999,0.0,0.0,37,0.00,,,0.00,LWC V1.12 B30,2013-07-11 19:58:00,
2013-07-11 14:03:00,88.6,58.2,29.53,North,-999,0.0,0.0,36,0.00,,,0.00,LWC V1.12 B30,2013-07-11 20:03:00,
2013-07-11 14:08:00,88.8,57.6,29.53,North,-999,0.0,0.0,35,0.00,,,0.00,LWC V1.12 B30,2013-07-11 20:08:00,
2013-07-11 14:13:00,88.4,58.8,29.53,North,-999,0.0,0.0,37,0.00,,,0.00,LWC V1.12 B30,2013-07-11 20:13:00,
2013-07-11 14:18:00,88.8,56.8,29.53,North,-999,0.0,0.0,34,0.00,,,0.00,LWC V1.12 B30,2013-07-11 20:18:00,
2013-07-11 14:24:00,89.1,56.2,29.53,North,-999,0.0,0.0,33,0.00,,,0.00,LWC V1.12 B30,2013-07-11 20:24:00,
2013-07-11 14:29:00,88.9,56.0,29.53,North,-999,0.0,0.0,33,0.00,,,0.00,LWC V1.12 B30,2013-07-11 20:29:00,
2013-07-11 14:34:00,88.8,55.1,29.53,North,-999,0.0,0.0,32,0.00,,,0.00,LWC V1.12 B30,2013-07-11 20:34:00,
2013-07-11 14:39:00,88.6,54.0,29.53,North,-999,0.0,0.0,31,0.00,,,0.00,LWC V1.12 B30,2013-07-11 20:39:00,
2013-07-11 14:44:00,88.7,52.3,29.53,North,-999,0.0,0.0,29,0.00,,,0.00,LWC V1.12 B30,2013-07-11 20:44:00,
2013-07-11 14:49:00,88.5,52.1,29.53,North,-999,0.0,0.0,29,0.00,,,0.00,LWC V1.12 B30,2013-07-11 20:49:00,
2013-07-11 14:54:00,88.1,54.5,29.53,North,-999,0.0,0.0,32,0.00,,,0.00,LWC V1.12 B30,2013-07-11 20:54:00,
2013-07-11 15:00:00,87.8,54.2,29.53,North,-999,0.0,0.0,32,0.00,,,0.00,LWC V1.12 B30,2013-07-11 21:00:00,
2013-07-11 15:05:00,87.6,54.9,29.53,North,-999,0.0,0.0,33,0.00,,,0.00,LWC V1.12 B30,2013-07-11 21:05:00,
2013-07-11 15:11:00,87.9,55.2,29.53,North,-999,0.0,0.0,33,0.00,,,0.00,LWC V1.12 B30,2013-07-11 21:11:00,
2013-07-11 15:16:00,88.3,55.5,29.53,North,-999,0.0,0.0,33,0.00,,,0.00,LWC V1.12 B30,2013-07-11 21:16:00,
2013-07-11 15:22:00,88.5,55.7,29.53,North,-999,0.0,0.0,33,0.00,,,0.00,LWC V1.12 B30,2013-07-11 21:22:00,
2013-07-11 15:27:00,88.7,55.0,29.53,North,-999,0.0,0.0,32,0.00,,,0.00,LWC V1.12 B30,2013-07-11 21:27:00,
2013-07-11 15:32:00,88.9,54.3,29.53,North,-999,0.0,0.0,31,0.00,,,0.00,LWC V1.12 B30,2013-07-11 21:32:00,
2013-07-11 15:37:00,88.7,55.0,29.53,North,-999,0.0,0.0,32,0.00,,,0.00,LWC V1.12 B30,2013-07-11 21:37:00,
2013-07-11 15:42:00,88.7,55.9,29.53,North,-999,0.0,0.0,33,0.00,,,0.00,LWC V1.12 B30,2013-07-11 21:42:00,
2013-07-11 15:47:00,88.9,55.2,29.53,North,-999,0.0,0.0,32,0.00,,,0.00,LWC V1.12 B30,2013-07-11 21:47:00,
2013-07-11 15:53:00,89.1,55.4,29.53,North,-999,0.0,0.0,32,0.00,,,0.00,LWC V1.12 B30,2013-07-11 21:53:00,
2013-07-11 15:59:00,89.3,54.7,29.53,North,-999,0.0,0.0,31,0.00,,,0.00,LWC V1.12 B30,2013-07-11 21:59:00,
2013-07-11 16:05:00,89.2,54.6,29.53,North,-999,0.0,0.0,31,0.00,,,0.00,LWC V1.12 B30,2013-07-11 22:05:00,
2013-07-11 16:10:00,89.2,55.4,29.53,North,-999,0.0,0.0,32,0.00,,,0.00,LWC V1.12 B30,2013-07-11 22:10:00,
2013-07-11 16:15:00,89.3,55.5,29.53,North,-999,0.0,0.0,32,0.00,,,0.00,LWC V1.12 B30,2013-07-11 22:15:00,
2013-07-11 16:20:00,89.2,55.4,29.53,North,-999,0.0,0.0,32,0.00,,,0.00,LWC V1.12 B30,2013-07-11 22:20:00,
2013-07-11 16:26:00,89.2,55.4,29.53,North,-999,0.0,0.0,32,0.00,,,0.00,LWC V1.12 B30,2013-07-11 22:26:00,
2013-07-11 16:31:00,88.9,55.2,29.53,North,-999,0.0,0.0,32,0.00,,,0.00,LWC V1.12 B30,2013-07-11 22:31:00,
2013-07-11 16:37:00,88.6,55.8,29.53,North,-999,0.0,0.0,33,0.00,,,0.00,LWC V1.12 B30,2013-07-11 22:37:00,
2013-07-11 16:42:00,88.4,55.6,29.53,North,-999,0.0,0.0,33,0.00,,,0.00,LWC V1.12 B30,2013-07-11 22:42:00,
2013-07-11 16:47:00,88.3,56.3,29.53,North,-999,0.0,0.0,34,0.00,,,0.00,LWC V1.12 B30,2013-07-11 22:47:00,
2013-07-11 16:53:00,88.2,56.2,29.53,North,-999,0.0,0.0,34,0.00,,,0.00,LWC V1.12 B30,2013-07-11 22:53:00,
2013-07-11 16:58:00,88.2,57.0,29.53,North,-999,0.0,0.0,35,0.00,,,0.00,LWC V1.12 B30,2013-07-11 22:58:00,
2013-07-11 17:03:00,88.3,56.3,29.53,North,-999,0.0,0.0,34,0.00,,,0.00,LWC V1.12 B30,2013-07-11 23:03:00,
2013-07-11 17:08:00,88.3,57.1,29.53,North,-999,0.0,0.0,35,0.00,,,0.00,LWC V1.12 B30,2013-07-11 23:08:00,
2013-07-11 17:13:00,88.5,56.5,29.53,North,-999,0.0,0.0,34,0.00,,,0.00,LWC V1.12 B30,2013-07-11 23:13:00,
2013-07-11 17:18:00,88.5,56.5,29.53,North,-999,0.0,0.0,34,0.00,,,0.00,LWC V1.12 B30,2013-07-11 23:18:00,
2013-07-11 17:24:00,88.5,56.5,29.53,North,-999,0.0,0.0,34,0.00,,,0.00,LWC V1.12 B30,2013-07-11 23:24:00,
2013-07-11 17:29:00,88.4,58.0,29.53,North,-999,0.0,0.0,36,0.00,,,0.00,LWC V1.12 B30,2013-07-11 23:29:00,
2013-07-11 17:34:00,88.5,58.1,29.53,North,-999,0.0,0.0,36,0.00,,,0.00,LWC V1.12 B30,2013-07-11 23:34:00,
2013-07-11 17:40:00,89.0,56.9,29.53,North,-999,0.0,0.0,34,0.00,,,0.00,LWC V1.12 B30,2013-07-11 23:40:00,
2013-07-11 17:45:00,89.2,57.1,29.53,North,-999,0.0,0.0,34,0.00,,,0.00,LWC V1.12 B30,2013-07-11 23:45:00,
2013-07-11 17:51:00,89.3,57.2,29.53,North,-999,0.0,0.0,34,0.00,,,0.00,LWC V1.12 B30,2013-07-11 23:51:00,
2013-07-11 17:56:00,89.2,58.7,29.53,North,-999,0.0,0.0,36,0.00,,,0.00,LWC V1.12 B30,2013-07-11 23:56:00,
2013-07-11 18:01:00,89.0,56.9,29.53,North,-999,0.0,0.0,34,0.00,,,0.00,LWC V1.12 B30,2013-07-12 00:01:00,
2013-07-11 18:06:00,88.8,55.9,29.53,North,-999,0.0,0.0,33,0.00,,,0.00,LWC V1.12 B30,2013-07-12 00:06:00,
2013-07-11 18:12:00,88.7,57.5,29.53,North,-999,0.0,0.0,35,0.00,,,0.00,LWC V1.12 B30,2013-07-12 00:12:00,
2013-07-11 18:17:00,88.7,59.0,29.53,North,-999,0.0,0.0,37,0.00,,,0.00,LWC V1.12 B30,2013-07-12 00:17:00,
2013-07-11 18:22:00,88.5,58.9,29.53,North,-999,0.0,0.0,37,0.00,,,0.00,LWC V1.12 B30,2013-07-12 00:22:00,
2013-07-11 18:27:00,88.2,58.6,29.53,North,-999,0.0,0.0,37,0.00,,,0.00,LWC V1.12 B30,2013-07-12 00:27:00,
2013-07-11 18:33:00,88.0,58.4,29.53,North,-999,0.0,0.0,37,0.00,,,0.00,LWC V1.12 B30,2013-07-12 00:33:00,
2013-07-11 18:38:00,87.7,58.2,29.53,North,-999,0.0,0.0,37,0.00,,,0.00,LWC V1.12 B30,2013-07-12 00:38:00,
2013-07-11 18:43:00,87.6,58.1,29.53,North,-999,0.0,0.0,37,0.00,,,0.00,LWC V1.12 B30,2013-07-12 00:43:00,
2013-07-11 18:49:00,87.5,57.2,29.53,North,-999,0.0,0.0,36,0.00,,,0.00,LWC V1.12 B30,2013-07-12 00:49:00,
2013-07-11 18:54:00,87.4,57.1,29.53,North,-999,0.0,0.0,36,0.00,,,0.00,LWC V1.12 B30,2013-07-12 00:54:00,
2013-07-11 19:00:00,87.3,56.3,29.53,North,-999,0.0,0.0,35,0.00,,,0.00,LWC V1.12 B30,2013-07-12 01:00:00,
2013-07-11 19:05:00,87.1,56.1,29.53,North,-999,0.0,0.0,35,0.00,,,0.00,LWC V1.12 B30,2013-07-12 01:05:00,
2013-07-11 19:10:00,87.0,57.5,29.53,North,-999,0.0,0.0,37,0.00,,,0.00,LWC V1.12 B30,2013-07-12 01:10:00,
2013-07-11 19:15:00,86.7,56.5,29.53,North,-999,0.0,0.0,36,0.00,,,0.00,LWC V1.12 B30,2013-07-12 01:15:00,
2013-07-11 19:21:00,86.4,56.3,29.53,North,-999,0.0,0.0,36,0.00,,,0.00,LWC V1.12 B30,2013-07-12 01:21:00,
2013-07-11 19:26:00,86.2,56.8,29.53,North,-999,0.0,0.0,37,0.00,,,0.00,LWC V1.12 B30,2013-07-12 01:26:00,
2013-07-11 19:31:00,85.9,56.6,29.53,North,-999,0.0,0.0,37,0.00,,,0.00,LWC V1.12 B30,2013-07-12 01:31:00,
2013-07-11 19:36:00,85.6,56.3,29.53,North,-999,0.0,0.0,37,0.00,,,0.00,LWC V1.12 B30,2013-07-12 01:36:00,
2013-07-11 19:41:00,85.3,56.8,29.53,North,-999,0.0,0.0,38,0.00,,,0.00,LWC V1.12 B30,2013-07-12 01:41:00,
2013-07-11 19:46:00,85.1,58.0,29.53,North,-999,0.0,0.0,40,0.00,,,0.00,LWC V1.12 B30,2013-07-12 01:46:00,
2013-07-11 19:51:00,84.9,57.8,29.53,North,-999,0.0,0.0,40,0.00,,,0.00,LWC V1.12 B30,2013-07-12 01:51:00,
2013-07-11 19:57:00,84.6,57.6,29.53,North,-999,0.0,0.0,40,0.00,,,0.00,LWC V1.12 B30,2013-07-12 01:57:00,
2013-07-11 20:02:00,84.4,56.7,29.53,North,-999,0.0,0.0,39,0.00,,,0.00,LWC V1.12 B30,2013-07-12 02:02:00,
2013-07-11 20:07:00,84.2,56.5,29.53,North,-999,0.0,0.0,39,0.00,,,0.00,LWC V1.12 B30,2013-07-12 02:07:00,
2013-07-11 20:12:00,84.0,57.0,29.53,North,-999,0.0,0.0,40,0.00,,,0.00,LWC V1.12 B30,2013-07-12 02:12:00,
2013-07-11 20:17:00,83.8,56.2,29.53,North,-999,0.0,0.0,39,0.00,,,0.00,LWC V1.12 B30,2013-07-12 02:17:00,
2013-07-11 20:23:00,83.6,56.0,29.53,North,-999,0.0,0.0,39,0.00,,,0.00,LWC V1.12 B30,2013-07-12 02:23:00,
2013-07-11 20:29:00,83.3,55.0,29.53,North,-999,0.0,0.0,38,0.00,,,0.00,LWC V1.12 B30,2013-07-12 02:29:00,
2013-07-11 20:34:00,83.1,54.8,29.53,North,-999,0.0,0.0,38,0.00,,,0.00,LWC V1.12 B30,2013-07-12 02:34:00,
2013-07-11 20:39:00,83.0,54.7,29.53,North,-999,0.0,0.0,38,0.00,,,0.00,LWC V1.12 B30,2013-07-12 02:39:00,
2013-07-11 20:44:00,82.8,54.6,29.53,North,-999,0.0,0.0,38,0.00,,,0.00,LWC V1.12 B30,2013-07-12 02:44:00,
2013-07-11 20:49:00,82.6,55.1,29.53,North,-999,0.0,0.0,39,0.00,,,0.00,LWC V1.12 B30,2013-07-12 02:49:00,
2013-07-11 20:55:00,82.4,54.2,29.53,North,-999,0.0,0.0,38,0.00,,,0.00,LWC V1.12 B30,2013-07-12 02:55:00,
2013-07-11 21:00:00,82.3,54.8,29.53,North,-999,0.0,0.0,39,0.00,,,0.00,LWC V1.12 B30,2013-07-12 03:00:00,
2013-07-11 21:06:00,82.1,54.7,29.53,North,-999,0.0,0.0,39,0.00,,,0.00,LWC V1.12 B30,2013-07-12 03:06:00,
2013-07-11 21:11:00,81.9,54.5,29.53,North,-999,0.0,0.0,39,0.00,,,0.00,LWC V1.12 B30,2013-07-12 03:11:00,
2013-07-11 21:16:00,81.8,55.1,29.53,North,-999,0.0,0.0,40,0.00,,,0.00,LWC V1.12 B30,2013-07-12 03:16:00,
2013-07-11 21:21:00,81.7,55.0,29.53,North,-999,0.0,0.0,40,0.00,,,0.00,LWC V1.12 B30,2013-07-12 03:21:00,
2013-07-11 21:26:00,81.5,54.8,29.53,North,-999,0.0,0.0,40,0.00,,,0.00,LWC V1.12 B30,2013-07-12 03:26:00,
2013-07-11 21:31:00,81.3,54.6,29.53,North,-999,0.0,0.0,40,0.00,,,0.00,LWC V1.12 B30,2013-07-12 03:31:00,
2013-07-11 21:37:00,81.1,55.1,29.53,North,-999,0.0,0.0,41,0.00,,,0.00,LWC V1.12 B30,2013-07-12 03:37:00,
2013-07-11 21:43:00,80.9,55.0,29.53,North,-999,0.0,0.0,41,0.00,,,0.00,LWC V1.12 B30,2013-07-12 03:43:00,
2013-07-11 21:49:00,80.8,54.2,29.53,North,-999,0.0,0.0,40,0.00,,,0.00,LWC V1.12 B30,2013-07-12 03:49:00,
2013-07-11 21:54:00,80.6,55.4,29.53,North,-999,0.0,0.0,42,0.00,,,0.00,LWC V1.12 B30,2013-07-12 03:54:00,
2013-07-11 21:59:00,80.4,55.2,29.53,North,-999,0.0,0.0,42,0.00,,,0.00,LWC V1.12 B30,2013-07-12 03:59:00,
2013-07-11 22:01:00,80.4,55.2,29.53,North,-999,0.0,0.0,42,0.00,,,0.00,LWC V1.12 B30,2013-07-12 04:01:00,
2013-07-11 22:02:00,80.4,55.8,29.53,North,-999,0.0,0.0,43,0.00,,,0.00,LWC V1.12 B30,2013-07-12 04:02:00,
2013-07-11 22:03:00,80.3,55.7,29.53,North,-999,0.0,0.0,43,0.00,,,0.00,LWC V1.12 B30,2013-07-12 04:03:00,
2013-07-11 22:04:00,80.3,55.7,29.53,North,-999,0.0,0.0,43,0.00,,,0.00,LWC V1.12 B30,2013-07-12 04:04:00,
2013-07-11 22:09:00,80.1,55.6,29.53,North,-999,0.0,0.0,43,0.00,,,0.00,LWC V1.12 B30,2013-07-12 04:09:00,
2013-07-11 22:14:00,79.9,56.0,29.53,North,-999,0.0,0.0,44,0.00,,,0.00,LWC V1.12 B30,2013-07-12 04:14:00,
2013-07-11 22:19:00,79.9,55.4,29.53,North,-999,0.0,0.0,43,0.00,,,0.00,LWC V1.12 B30,2013-07-12 04:19:00,
2013-07-11 22:24:00,79.8,56.5,29.53,North,-999,0.0,0.0,45,0.00,,,0.00,LWC V1.12 B30,2013-07-12 04:24:00,
2013-07-11 22:29:00,79.6,55.7,29.53,North,-999,0.0,0.0,44,0.00,,,0.00,LWC V1.12 B30,2013-07-12 04:29:00,
2013-07-11 22:34:00,79.5,56.9,29.53,North,-999,0.0,0.0,46,0.00,,,0.00,LWC V1.12 B30,2013-07-12 04:34:00,
2013-07-11 22:39:00,79.4,56.8,29.53,North,-999,0.0,0.0,46,0.00,,,0.00,LWC V1.12 B30,2013-07-12 04:39:00,
2013-07-11 22:44:00,79.3,56.1,29.53,North,-999,0.0,0.0,45,0.00,,,0.00,LWC V1.12 B30,2013-07-12 04:44:00,
2013-07-11 22:49:00,79.2,56.0,29.53,North,-999,0.0,0.0,45,0.00,,,0.00,LWC V1.12 B30,2013-07-12 04:49:00,
2013-07-11 22:54:00,79.2,56.6,29.53,North,-999,0.0,0.0,46,0.00,,,0.00,LWC V1.12 B30,2013-07-12 04:54:00,
2013-07-11 22:59:00,79.1,55.9,29.53,North,-999,0.0,0.0,45,0.00,,,0.00,LWC V1.12 B30,2013-07-12 04:59:00,
2013-07-11 23:04:00,79.0,55.8,29.53,North,-999,0.0,0.0,45,0.00,,,0.00,LWC V1.12 B30,2013-07-12 05:04:00,
2013-07-11 23:09:00,78.9,55.7,29.53,North,-999,0.0,0.0,45,0.00,,,0.00,LWC V1.12 B30,2013-07-12 05:09:00,
2013-07-11 23:14:00,78.9,55.7,29.53,North,-999,0.0,0.0,45,0.00,,,0.00,LWC V1.12 B30,2013-07-12 05:14:00,
2013-07-11 23:19:00,78.8,55.6,29.53,North,-999,0.0,0.0,45,0.00,,,0.00,LWC V1.12 B30,2013-07-12 05:19:00,
2013-07-11 23:24:00,78.6,56.1,29.53,North,-999,0.0,0.0,46,0.00,,,0.00,LWC V1.12 B30,2013-07-12 05:24:00,
2013-07-11 23:29:00,78.6,56.1,29.53,North,-999,0.0,0.0,46,0.00,,,0.00,LWC V1.12 B30,2013-07-12 05:29:00,
2013-07-11 23:34:00,78.5,56.6,29.53,North,-999,0.0,0.0,47,0.00,,,0.00,LWC V1.12 B30,2013-07-12 05:34:00,
2013-07-11 23:39:00,78.5,56.6,29.53,North,-999,0.0,0.0,47,0.00,,,0.00,LWC V1.12 B30,2013-07-12 05:39:00,
2013-07-11 23:44:00,78.4,56.5,29.53,North,-999,0.0,0.0,47,0.00,,,0.00,LWC V1.12 B30,2013-07-12 05:44:00,
2013-07-11 23:49:00,78.3,56.4,29.53,North,-999,0.0,0.0,47,0.00,,,0.00,LWC V1.12 B30,2013-07-12 05:49:00,
2013-07-11 23:54:00,78.2,56.9,29.53,North,-999,0.0,0.0,48,0.00,,,0.00,LWC V1.12 B30,2013-07-12 05:54:00,
2013-07-11 23:59:00,78.2,56.3,29.53,North,-999,0.0,0.0,47,0.00,,,0.00,LWC V1.12 B30,2013-07-12 05:59:00,